Regional Weather Roundup
Issued by NWS Newport/Morehead, NC

Current Version | Previous Version | Graphics & Text | Print | Product List | Glossary Off
Versions: 1 2 3 4 5 6 7 8 9 10 11 12 13 14 15 16 17 18 19 20 21 22 23 24 25 26 27 28 29 30 31 32 33 34 35 36 37 38 39 40 41 42 43 44 45 46 47 48 49 50

000
ASUS42 KMHX 252226
RWRMHX
WEATHER ROUNDUP FOR EASTERN NORTH CAROLINA
NATIONAL WEATHER SERVICE NEWPORT/MOREHEAD CITY NC
600 PM EDT TUE JUL 25 2017

NOTE: "FAIR" INDICATES FEW OR NO CLOUDS BELOW 12,000 FEET
WITH NO SIGNIFICANT WEATHER AND/OR OBSTRUCTIONS TO VISIBILITY

NCZ015>017-031-032-045>047-102-103-252300-
NORTH COAST

CITY           SKY/WX    TMP DP  RH WIND       PRES   REMARKS
EDENTON        MOSUNNY   82  71  68 E13       30.08S
ELIZABETH CITY MOSUNNY   82  68  62 NE12      30.08R
KITTY HAWK     MOCLDY    78  64  60 NE3       30.08S
MANTEO         CLOUDY    79  65  63 E13       30.09S

$$

NCZ045>047-081-094-103-104-252300-
CENTRAL COAST

CITY           SKY/WX    TMP DP  RH WIND       PRES   REMARKS
FRISCO         CLOUDY    79  69  71 NE10G18   30.08S

$$

NCZ095-097-098-100-101-252300-
SOUTHERN COAST

CITY           SKY/WX    TMP DP  RH WIND       PRES   REMARKS
BEAUFORT       MOSUNNY   85  78  80 W8        30.03F
CEDAR ISLAND   NOT AVBL
JACKSONVILLE   MOSUNNY   88  77  69 S7        30.01F HX 100
PINEY ISLAND   HVY RAIN N/A N/A N/A E17       30.06F VSB 1/4
WILMINGTON     CLOUDY    84  75  74 N3        30.03R


$$

NCZ011>013-027>030-043-044-078>080-089-090>093-098-252300-
COASTAL PLAIN

CITY           SKY/WX    TMP DP  RH WIND       PRES   REMARKS
AHOSKIE          N/A     83  73  70 CALM      30.06S
CLINTON        SUNNY     92  72  51 N6        30.02F HX 100
ELIZABETHTOWN  NOT AVBL
GOLDSBORO      PTSUNNY   92  70  48 N8        30.01F
GREENVILLE     PTSUNNY   88  73  62 E12       30.06S
HAVELOCK       CLOUDY    83  74  74 E8        30.05F
KENANSVILLE    SUNNY     91  70  49 N9        30.02S
KINSTON        MOSUNNY   90  72  55 E7        30.03F
NEW BERN       PTSUNNY   83  75  77 E8        30.05R
RICHLANDS      SUNNY     89  78  70 S7        30.02F HX 103
ROCKY MOUNT    MOSUNNY   88  74  63 E3        30.04F
WASHINGTON     MOSUNNY   85  73  66 E8        30.05F
WHITEVILLE     MOSUNNY   92  71  49 CALM      30.01S

$$

AMZ130-135-150-152-154-156-158-170-250-252-270-ANZ085-086-088-633-658-670-252300-
MARINE OBSERVATIONS

STATION/POSITION TIME  TEMP    WIND        PRES    WAVE   SWELL
                       AIR SEA DIR/SP/G            HT/PER HT/PER
                 (UTC) (F)     (DEG/KT/KT) (MB)    (FT/S) (FT/S)
CHESAPEAKE LIGHT NOT AVBL
64 E VA BEACH    2150   76 78  360/ 12/ 14 1019.1    3/ 5   2/ 7
DUCK             2200   76 76   40/ 11/ 12 1018.5
2 E DUCK         2200      75                N/A     2/ 6
OREGON INLET     2200   77 76   30/  8/ 12 1018.6
13E OREGON INLT  2148      74                N/A     4/ 4   2/ 7
HATTERAS CG      2200   78 79   60/  8/ 16 1018.3
DIAMOND BUOY     2150   80 84   20/ 14/ 16 1017.7    3/ 7   2/ 7
CAPE LOOKOUT     2200   83     220/  6/  7 1017.0
BEAUFORT LAB     2200   84 83  210/  6/  8 1016.5
30 SE NEW RVR IN 2208   83 84  220/ 12/ 16 1016.9
30 SE NEW RVR IN 2143      84                N/A     4/ 6
27 SE WRIGHTSVLE 2208   83 84  220/ 12/ 16 1016.8
5 SE WRIGHTSVLE  2208   82 83  200/ 12/ 17 1016.7
225 S CAPE HAT   2150   82 83  190/  8/ 10 1019.3    4/ 6   3/ 6
41 SE CHARLESTON 2210   81 83  210/ 12/ 14 1016.9

$$




USA.gov is the U.S. government's official web portal to all federal, state and local government web resources and services.